When you browse on this site, cookies collect data to enhance your experience and personalize the content and advertising you see.
Visit our Privacy Policy to learn more. By continuing to use the site, you agree to this use of cookies and data.
  • In Hungary
  • List of Countries
  • For 7 days
  • Water Temperature
  • Weather Map
  • News
  • Weather Widgets
  • user-avatar
    Login

    Hourly Weather La Colonia de París

    Today, 15 November, Friday

    Time Temperature Precipitation Wind Pressure Humidity
    00:00 +26°C° 0.1 mm 2 mps 757 mmHg 92%
    01:00 +26°C° 0.1 mm 2 mps 757 mmHg 92%
    02:00 +26°C° 0.2 mm 2 mps 757 mmHg 93%
    03:00 +25°C° 0.2 mm 2 mps 756 mmHg 93%
    04:00 +25°C° 0.2 mm 1 mps 756 mmHg 94%
    05:00 +25°C° 0.1 mm 1 mps 757 mmHg 93%
    06:00 +26°C° 0.1 mm 1 mps 757 mmHg 92%
    07:00 +26°C° 0.1 mm 1 mps 757 mmHg 92%
    08:00 +27°C° 0.2 mm 1 mps 758 mmHg 87%
    09:00 +29°C° 0.2 mm 1 mps 758 mmHg 82%
    10:00 +30°C° 0.2 mm 1 mps 758 mmHg 77%
    11:00 +30°C° 2.1 mm 1 mps 758 mmHg 75%
    12:00 +31°C° 2.1 mm 1 mps 757 mmHg 74%
    13:00 +31°C° 2.1 mm 2 mps 756 mmHg 72%
    14:00 +31°C° 2.6 mm 2 mps 756 mmHg 75%
    15:00 +30°C° 2.6 mm 2 mps 755 mmHg 78%
    16:00 +30°C° 2.6 mm 2 mps 755 mmHg 80%
    17:00 +29°C° 0.8 mm 2 mps 755 mmHg 83%
    18:00 +28°C° 0.8 mm 1 mps 756 mmHg 85%
    19:00 +27°C° 0.8 mm 1 mps 756 mmHg 87%
    20:00 +27°C° 0.1 mm 1 mps 757 mmHg 88%
    21:00 +27°C° 0.1 mm 1 mps 757 mmHg 89%
    22:00 +26°C° 0.1 mm 1 mps 758 mmHg 89%
    23:00 +26°C° 0 mm 1 mps 757 mmHg 91%

    Tomorrow, 16 November, Saturday

    Time Temperature Precipitation Wind Pressure Humidity
    00:00 +26°C° 0 mm 1 mps 757 mmHg 92%
    01:00 +26°C° 0 mm 2 mps 756 mmHg 93%
    02:00 +25°C° 0.1 mm 2 mps 756 mmHg 93%
    03:00 +25°C° 0.1 mm 1 mps 755 mmHg 93%
    04:00 +25°C° 0.1 mm 1 mps 755 mmHg 93%
    05:00 +25°C° 0 mm 1 mps 755 mmHg 92%
    06:00 +26°C° 0 mm 1 mps 756 mmHg 92%
    07:00 +24°C° 0 mm 0 mps 756 mmHg 91%
    08:00 +27°C° 0 mm 1 mps 756 mmHg 86%
    09:00 +29°C° 0 mm 1 mps 757 mmHg 81%
    10:00 +30°C° 0 mm 1 mps 757 mmHg 77%
    11:00 +30°C° 0.3 mm 1 mps 757 mmHg 74%
    12:00 +29°C° 0.3 mm 0 mps 756 mmHg 71%
    13:00 +30°C° 0.3 mm 0 mps 755 mmHg 68%
    14:00 +32°C° 1 mm 1 mps 755 mmHg 69%
    15:00 +31°C° 1 mm 1 mps 754 mmHg 71%
    16:00 +31°C° 1 mm 1 mps 754 mmHg 72%
    17:00 +30°C° 0.5 mm 1 mps 754 mmHg 77%
    18:00 +29°C° 0.5 mm 1 mps 754 mmHg 81%
    19:00 +27°C° 0.5 mm 1 mps 755 mmHg 86%
    20:00 +27°C° 0 mm 1 mps 755 mmHg 87%
    21:00 +27°C° 0 mm 1 mps 756 mmHg 88%
    22:00 +26°C° 0 mm 1 mps 756 mmHg 89%
    23:00 +26°C° 0 mm 1 mps 756 mmHg 90%

    Day after tomorrow, 17 November, Sunday

    Time Temperature Precipitation Wind Pressure Humidity
    00:00 +26°C° 0 mm 1 mps 756 mmHg 90%
    01:00 +25°C° 0 mm 1 mps 755 mmHg 90%
    02:00 +25°C° 0 mm 1 mps 755 mmHg 91%
    03:00 +25°C° 0 mm 1 mps 755 mmHg 91%
    04:00 +25°C° 0 mm 1 mps 754 mmHg 91%
    05:00 +25°C° 0 mm 1 mps 755 mmHg 91%
    06:00 +25°C° 0 mm 1 mps 755 mmHg 91%
    07:00 +26°C° 0 mm 1 mps 756 mmHg 90%
    08:00 +27°C° 0 mm 1 mps 756 mmHg 85%
    09:00 +28°C° 0 mm 1 mps 756 mmHg 79%
    10:00 +30°C° 0 mm 1 mps 757 mmHg 73%
    11:00 +30°C° 0.1 mm 1 mps 756 mmHg 71%
    12:00 +31°C° 0.1 mm 1 mps 755 mmHg 68%
    13:00 +32°C° 0.1 mm 1 mps 755 mmHg 65%
    14:00 +32°C° 0.4 mm 1 mps 754 mmHg 65%
    15:00 +32°C° 0.4 mm 1 mps 754 mmHg 66%
    16:00 +32°C° 0.4 mm 1 mps 754 mmHg 66%
    17:00 +30°C° 0.9 mm 1 mps 754 mmHg 73%
    18:00 +29°C° 0.9 mm 1 mps 755 mmHg 80%
    19:00 +27°C° 0.9 mm 1 mps 755 mmHg 87%
    20:00 +27°C° 0.3 mm 1 mps 755 mmHg 87%
    21:00 +27°C° 0.3 mm 1 mps 756 mmHg 88%
    22:00 +26°C° 0.3 mm 1 mps 756 mmHg 88%
    23:00 +26°C° 0 mm 1 mps 756 mmHg 89%

    18 November, Monday

    Time Temperature Precipitation Wind Pressure Humidity
    00:00 +26°C° 0 mm 1 mps 756 mmHg 89%
    01:00 +26°C° 0 mm 1 mps 755 mmHg 90%
    02:00 +25°C° 0 mm 1 mps 755 mmHg 90%
    03:00 +25°C° 0 mm 1 mps 755 mmHg 91%
    04:00 +25°C° 0 mm 1 mps 755 mmHg 91%
    05:00 +25°C° 0 mm 1 mps 755 mmHg 91%
    06:00 +25°C° 0 mm 1 mps 756 mmHg 90%
    07:00 +26°C° 0 mm 1 mps 756 mmHg 90%
    08:00 +27°C° 0 mm 1 mps 756 mmHg 84%
    09:00 +29°C° 0 mm 1 mps 757 mmHg 79%
    10:00 +30°C° 0 mm 1 mps 757 mmHg 74%
    11:00 +30°C° 0.3 mm 1 mps 756 mmHg 72%
    12:00 +31°C° 0.3 mm 1 mps 756 mmHg 69%
    13:00 +31°C° 0.3 mm 1 mps 755 mmHg 67%
    14:00 +31°C° 1.3 mm 1 mps 755 mmHg 69%
    15:00 +31°C° 1.3 mm 1 mps 754 mmHg 72%
    16:00 +30°C° 1.3 mm 1 mps 754 mmHg 74%
    17:00 +29°C° 1.5 mm 1 mps 754 mmHg 79%
    18:00 +28°C° 1.5 mm 1 mps 755 mmHg 83%
    19:00 +27°C° 1.5 mm 1 mps 755 mmHg 88%
    20:00 +27°C° 0.5 mm 1 mps 756 mmHg 89%
    21:00 +26°C° 0.5 mm 1 mps 756 mmHg 89%
    22:00 +26°C° 0.5 mm 1 mps 757 mmHg 90%
    23:00 +26°C° 0 mm 1 mps 756 mmHg 90%

    19 November, Tuesday

    Time Temperature Precipitation Wind Pressure Humidity
    00:00 +26°C° 0 mm 1 mps 756 mmHg 91%
    01:00 +25°C° 0 mm 1 mps 756 mmHg 92%
    02:00 +25°C° 0 mm 1 mps 756 mmHg 92%
    03:00 +25°C° 0 mm 1 mps 756 mmHg 93%
    04:00 +23°C° 0 mm 0 mps 755 mmHg 93%
    05:00 +23°C° 0 mm 0 mps 756 mmHg 93%
    06:00 +23°C° 0 mm 0 mps 756 mmHg 92%
    07:00 +24°C° 0 mm 0 mps 757 mmHg 91%
    08:00 +25°C° 0 mm 0 mps 757 mmHg 87%
    09:00 +28°C° 0 mm 1 mps 757 mmHg 82%
    10:00 +30°C° 0 mm 1 mps 757 mmHg 77%
    11:00 +30°C° 0.6 mm 1 mps 757 mmHg 75%
    12:00 +31°C° 0.6 mm 1 mps 756 mmHg 74%
    13:00 +31°C° 0.6 mm 1 mps 756 mmHg 72%
    14:00 +31°C° 2.2 mm 1 mps 756 mmHg 74%
    15:00 +30°C° 2.2 mm 1 mps 755 mmHg 76%
    16:00 +30°C° 2.2 mm 2 mps 755 mmHg 78%
    17:00 +29°C° 1.9 mm 2 mps 755 mmHg 81%
    18:00 +28°C° 1.9 mm 2 mps 756 mmHg 84%
    19:00 +27°C° 1.9 mm 2 mps 756 mmHg 87%
    20:00 +27°C° 0.4 mm 2 mps 757 mmHg 87%
    21:00 +26°C° 0.4 mm 2 mps 757 mmHg 87%
    22:00 +26°C° 0.4 mm 2 mps 757 mmHg 87%
    23:00 +26°C° 0 mm 1 mps 757 mmHg 88%

    20 November, Wednesday

    Time Temperature Precipitation Wind Pressure Humidity
    00:00 +25°C° 0 mm 1 mps 757 mmHg 88%
    01:00 +25°C° 0 mm 1 mps 757 mmHg 88%
    02:00 +25°C° 0 mm 1 mps 756 mmHg 89%
    03:00 +25°C° 0 mm 1 mps 756 mmHg 89%
    04:00 +23°C° 0 mm 0 mps 756 mmHg 89%
    05:00 +23°C° 0 mm 0 mps 756 mmHg 89%
    06:00 +23°C° 0 mm 0 mps 757 mmHg 89%
    07:00 +24°C° 0 mm 0 mps 757 mmHg 89%
    08:00 +25°C° 0 mm 0 mps 758 mmHg 84%
    09:00 +28°C° 0 mm 1 mps 758 mmHg 80%
    10:00 +29°C° 0 mm 1 mps 758 mmHg 75%
    11:00 +30°C° 0.3 mm 1 mps 758 mmHg 73%
    12:00 +31°C° 0.3 mm 1 mps 757 mmHg 70%
    13:00 +32°C° 0.3 mm 1 mps 756 mmHg 68%
    14:00 +31°C° 1.7 mm 1 mps 756 mmHg 71%
    15:00 +31°C° 1.7 mm 2 mps 755 mmHg 73%
    16:00 +30°C° 1.7 mm 2 mps 755 mmHg 76%
    17:00 +29°C° 1.2 mm 2 mps 755 mmHg 80%
    18:00 +28°C° 1.2 mm 2 mps 756 mmHg 84%
    19:00 +27°C° 1.2 mm 3 mps 756 mmHg 88%
    20:00 +26°C° 0.3 mm 2 mps 757 mmHg 88%
    21:00 +26°C° 0.3 mm 2 mps 757 mmHg 89%
    22:00 +26°C° 0.3 mm 2 mps 757 mmHg 89%
    23:00 +26°C° 0 mm 1 mps 757 mmHg 90%
    Show more